Time,TemperatureF,DewpointF,PressureIn,WindDirection,WindDirectionDegrees,WindSpeedMPH,WindSpeedGustMPH,Humidity,HourlyPrecipIn,Conditions,Clouds,dailyrainin,SoftwareType,DateUTC
2013-05-17 00:01:00,46.4,40.9,29.98,NW,318,5.4,8.1,81,0.00,,OVC110,0.00,VWS V14.01,2013-05-17 06:01:00,
2013-05-17 00:06:00,46.2,41.0,29.98,NNW,336,6.3,8.3,82,0.00,,CLR,0.00,VWS V14.01,2013-05-17 06:06:00,
2013-05-17 00:11:00,46.2,41.3,29.98,NNW,330,5.8,8.3,83,0.00,,CLR,0.00,VWS V14.01,2013-05-17 06:11:00,
2013-05-17 00:16:00,46.0,41.5,29.98,NNW,341,5.8,8.3,84,0.00,,CLR,0.00,VWS V14.01,2013-05-17 06:16:00,
2013-05-17 00:21:00,45.9,41.9,29.98,NNW,348,5.4,8.3,86,0.00,,CLR,0.00,VWS V14.01,2013-05-17 06:21:00,
2013-05-17 00:26:00,45.9,42.8,29.98,NNW,337,5.8,8.3,89,0.00,,CLR,0.00,VWS V14.01,2013-05-17 06:26:00,
2013-05-17 00:31:00,45.9,43.4,29.98,NNW,345,5.8,6.7,91,0.00,,CLR,0.00,VWS V14.01,2013-05-17 06:31:00,
2013-05-17 00:36:00,45.9,43.7,29.98,NNE,13,4.9,8.3,92,0.00,,CLR,0.00,VWS V14.01,2013-05-17 06:36:00,
2013-05-17 00:41:00,45.7,43.8,29.98,North,357,8.3,8.3,93,0.00,,CLR,0.00,VWS V14.01,2013-05-17 06:41:00,
2013-05-17 00:46:00,45.1,43.2,29.98,NNW,333,3.1,8.7,93,0.00,,CLR,0.00,VWS V14.01,2013-05-17 06:46:00,
2013-05-17 00:51:00,45.1,43.2,29.98,North,8,4.9,8.7,93,0.00,,CLR,0.00,VWS V14.01,2013-05-17 06:51:00,
2013-05-17 00:56:00,44.8,42.9,29.98,NNW,342,5.8,8.7,93,0.00,,CLR,0.00,VWS V14.01,2013-05-17 06:56:00,
2013-05-17 01:01:00,44.8,42.9,29.98,NNW,341,5.8,10.5,93,0.00,,CLR,0.00,VWS V14.01,2013-05-17 07:01:00,
2013-05-17 01:06:00,44.8,42.6,29.98,North,353,5.8,10.5,92,0.00,,CLR,0.00,VWS V14.01,2013-05-17 07:06:00,
2013-05-17 01:11:00,44.8,42.0,29.98,North,0,5.8,10.5,90,0.00,,CLR,0.00,VWS V14.01,2013-05-17 07:11:00,
2013-05-17 01:16:00,45.0,41.6,29.98,NNW,331,7.6,10.5,88,0.00,,CLR,0.00,VWS V14.01,2013-05-17 07:16:00,
2013-05-17 01:21:00,45.0,41.3,29.98,NNW,345,5.8,10.5,87,0.00,,CLR,0.00,VWS V14.01,2013-05-17 07:21:00,
2013-05-17 01:26:00,45.0,41.0,29.98,NW,326,5.8,10.5,86,0.00,,CLR,0.00,VWS V14.01,2013-05-17 07:26:00,
2013-05-17 01:31:00,45.1,40.9,29.98,NNW,331,3.1,3.1,85,0.00,,CLR,0.00,VWS V14.01,2013-05-17 07:31:00,
2013-05-17 01:36:00,45.0,41.0,29.98,NNW,337,4.0,7.6,86,0.00,,CLR,0.00,VWS V14.01,2013-05-17 07:36:00,
2013-05-17 01:41:00,44.8,41.2,29.98,WNW,291,2.2,7.6,87,0.00,,CLR,0.00,VWS V14.01,2013-05-17 07:41:00,
2013-05-17 01:46:00,44.2,41.2,29.98,WNW,291,0.0,7.6,89,0.00,,CLR,0.00,VWS V14.01,2013-05-17 07:46:00,
2013-05-17 01:51:00,44.1,41.0,29.98,WNW,291,0.0,7.6,89,0.00,,CLR,0.00,VWS V14.01,2013-05-17 07:51:00,
2013-05-17 01:56:00,44.1,41.6,29.98,WNW,291,0.0,7.6,91,0.00,,CLR,0.00,VWS V14.01,2013-05-17 07:56:00,
2013-05-17 02:01:00,43.7,41.2,29.98,WNW,291,0.0,0.0,91,0.00,,CLR,0.00,VWS V14.01,2013-05-17 08:01:00,
2013-05-17 02:06:00,43.9,41.4,29.98,NE,39,2.7,4.0,91,0.00,,OVC070,0.00,VWS V14.01,2013-05-17 08:06:00,
2013-05-17 02:11:00,43.7,41.5,29.98,North,9,3.6,4.0,92,0.00,,OVC070,0.00,VWS V14.01,2013-05-17 08:11:00,
2013-05-17 02:16:00,43.5,41.6,29.98,North,6,2.7,4.0,93,0.00,,OVC070,0.00,VWS V14.01,2013-05-17 08:16:00,
2013-05-17 02:21:00,43.5,41.6,29.98,North,11,0.0,4.0,93,0.00,,OVC070,0.00,VWS V14.01,2013-05-17 08:21:00,
2013-05-17 02:26:00,43.3,41.7,29.98,North,9,0.0,4.0,94,0.00,,OVC070,0.00,VWS V14.01,2013-05-17 08:26:00,
2013-05-17 02:31:00,43.2,41.5,29.98,North,9,0.0,0.0,94,0.00,,OVC070,0.00,VWS V14.01,2013-05-17 08:31:00,
2013-05-17 02:36:00,43.5,41.9,29.98,NNE,12,0.0,0.0,94,0.00,,OVC070,0.00,VWS V14.01,2013-05-17 08:36:00,
2013-05-17 02:41:00,43.5,41.9,29.98,NNE,12,0.0,0.0,94,0.00,,OVC070,0.00,VWS V14.01,2013-05-17 08:41:00,
2013-05-17 02:46:00,43.3,41.7,29.98,NNE,12,0.0,0.0,94,0.00,,OVC070,0.00,VWS V14.01,2013-05-17 08:46:00,
2013-05-17 02:51:00,43.5,41.9,29.98,NNE,12,0.0,0.0,94,0.00,,OVC070,0.00,VWS V14.01,2013-05-17 08:51:00,
2013-05-17 02:56:00,43.5,41.9,29.98,NNE,12,0.0,0.0,94,0.00,,OVC070,0.00,VWS V14.01,2013-05-17 08:56:00,
2013-05-17 03:01:00,43.5,41.9,29.98,NNE,12,0.0,0.0,94,0.00,,OVC070,0.00,VWS V14.01,2013-05-17 09:01:00,
2013-05-17 03:06:00,43.3,42.0,29.98,NNE,12,0.0,0.0,95,0.00,,OVC070,0.00,VWS V14.01,2013-05-17 09:06:00,
2013-05-17 03:11:00,43.0,41.7,29.98,North,10,0.0,0.0,95,0.00,,OVC070,0.00,VWS V14.01,2013-05-17 09:11:00,
2013-05-17 03:16:00,42.8,41.5,29.98,North,10,0.0,0.0,95,0.00,,OVC070,0.00,VWS V14.01,2013-05-17 09:16:00,
2013-05-17 03:21:00,42.6,41.3,29.98,North,10,0.0,0.0,95,0.00,,OVC070,0.00,VWS V14.01,2013-05-17 09:21:00,
2013-05-17 03:26:00,42.3,40.9,29.98,North,10,0.0,0.0,95,0.00,,OVC070,0.00,VWS V14.01,2013-05-17 09:26:00,
2013-05-17 03:31:00,42.4,41.1,29.98,North,9,0.0,0.0,95,0.00,,OVC070,0.00,VWS V14.01,2013-05-17 09:31:00,
2013-05-17 03:36:00,42.4,41.1,29.98,North,10,0.0,0.0,95,0.00,,OVC070,0.00,VWS V14.01,2013-05-17 09:36:00,
2013-05-17 03:41:00,42.3,40.9,29.98,North,10,0.0,0.0,95,0.00,,OVC070,0.00,VWS V14.01,2013-05-17 09:41:00,
2013-05-17 03:46:00,41.9,40.6,29.98,North,10,0.0,0.0,95,0.00,,OVC070,0.00,VWS V14.01,2013-05-17 09:46:00,
2013-05-17 03:51:00,41.7,40.4,29.98,North,10,0.0,0.0,95,0.00,,OVC070,0.00,VWS V14.01,2013-05-17 09:51:00,
2013-05-17 03:56:00,41.5,40.2,29.98,North,10,0.0,0.0,95,0.00,,OVC070,0.00,VWS V14.01,2013-05-17 09:56:00,
2013-05-17 04:01:00,41.4,40.0,29.98,North,10,0.0,0.0,95,0.00,,OVC070,0.00,VWS V14.01,2013-05-17 10:01:00,
2013-05-17 04:06:00,41.4,40.0,29.98,North,10,0.0,0.0,95,0.00,,SCT085,0.00,VWS V14.01,2013-05-17 10:06:00,
2013-05-17 04:11:00,41.4,40.0,29.98,North,10,0.0,0.0,95,0.00,,SCT085,0.00,VWS V14.01,2013-05-17 10:11:00,
2013-05-17 04:16:00,41.7,40.4,29.98,North,10,0.0,0.0,95,0.00,,SCT085,0.00,VWS V14.01,2013-05-17 10:16:00,
2013-05-17 04:21:00,42.1,40.8,29.98,North,10,0.0,0.0,95,0.00,,SCT085,0.00,VWS V14.01,2013-05-17 10:21:00,
2013-05-17 04:26:00,42.1,40.8,29.98,North,10,0.0,0.0,95,0.00,,SCT085,0.00,VWS V14.01,2013-05-17 10:26:00,
2013-05-17 04:31:00,42.3,40.9,29.98,North,10,0.0,0.0,95,0.00,,SCT085,0.00,VWS V14.01,2013-05-17 10:31:00,
2013-05-17 04:36:00,43.2,41.8,29.98,North,10,0.0,0.0,95,0.00,,SCT085,0.00,VWS V14.01,2013-05-17 10:36:00,
2013-05-17 04:41:00,43.3,42.0,29.98,North,10,0.0,0.0,95,0.00,,SCT085,0.00,VWS V14.01,2013-05-17 10:41:00,
2013-05-17 04:46:00,43.3,42.0,29.98,North,10,0.0,0.0,95,0.00,,SCT085,0.00,VWS V14.01,2013-05-17 10:46:00,
2013-05-17 04:51:00,43.3,42.0,29.98,North,10,0.0,0.0,95,0.00,,SCT085,0.00,VWS V14.01,2013-05-17 10:51:00,
2013-05-17 04:56:00,43.7,42.4,29.98,North,10,0.0,0.0,95,0.00,,SCT085,0.00,VWS V14.01,2013-05-17 10:56:00,
2013-05-17 05:01:00,43.7,42.4,29.98,North,10,0.0,0.0,95,0.00,,SCT085,0.00,VWS V14.01,2013-05-17 11:01:00,
2013-05-17 05:06:00,43.9,42.5,29.98,North,10,0.0,0.0,95,0.00,,SCT085,0.00,VWS V14.01,2013-05-17 11:06:00,
2013-05-17 05:11:00,43.7,42.4,29.98,North,10,0.0,0.0,95,0.00,,SCT085,0.00,VWS V14.01,2013-05-17 11:11:00,
2013-05-17 05:16:00,43.5,42.2,29.98,North,10,0.0,0.0,95,0.00,,SCT085,0.00,VWS V14.01,2013-05-17 11:16:00,
2013-05-17 05:21:00,43.5,42.2,29.98,North,10,0.0,0.0,95,0.00,,SCT085,0.00,VWS V14.01,2013-05-17 11:21:00,
2013-05-17 05:26:00,43.7,42.4,29.98,North,10,0.0,0.0,95,0.00,,SCT085,0.00,VWS V14.01,2013-05-17 11:26:00,
2013-05-17 05:31:00,43.9,42.5,29.98,North,10,0.0,0.0,95,0.00,,SCT085,0.00,VWS V14.01,2013-05-17 11:31:00,
2013-05-17 05:36:00,44.1,42.7,29.98,NNE,13,0.0,0.0,95,0.00,,SCT085,0.00,VWS V14.01,2013-05-17 11:36:00,
2013-05-17 05:41:00,44.1,42.7,29.98,NNE,13,0.0,0.0,95,0.00,,SCT085,0.00,VWS V14.01,2013-05-17 11:41:00,
2013-05-17 05:46:00,44.1,42.7,29.98,NNE,13,0.0,0.0,95,0.00,,SCT085,0.00,VWS V14.01,2013-05-17 11:46:00,
2013-05-17 05:51:00,44.4,43.1,29.98,NW,310,2.2,3.1,95,0.00,,SCT085,0.00,VWS V14.01,2013-05-17 11:51:00,
2013-05-17 05:56:00,44.4,43.1,29.98,NW,309,2.7,4.0,95,0.00,,SCT085,0.00,VWS V14.01,2013-05-17 11:56:00,
2013-05-17 06:01:00,44.6,43.3,29.98,WNW,303,2.7,4.0,95,0.00,,SCT085,0.24,VWS V14.01,2013-05-17 12:01:00,
2013-05-17 06:06:00,44.6,43.3,29.98,WNW,297,2.7,3.1,95,0.00,,SCT085,0.00,VWS V14.01,2013-05-17 12:06:00,
2013-05-17 06:11:00,44.8,43.4,29.98,SW,229,3.6,4.5,95,0.00,,SCT085,0.00,VWS V14.01,2013-05-17 12:11:00,
2013-05-17 06:16:00,44.8,43.4,29.98,WSW,239,3.6,5.4,95,0.00,,SCT085,0.00,VWS V14.01,2013-05-17 12:16:00,
2013-05-17 06:21:00,44.6,43.3,29.98,SW,223,2.7,5.4,95,0.00,,SCT085,0.00,VWS V14.01,2013-05-17 12:21:00,
2013-05-17 06:26:00,44.8,43.4,29.98,SSW,212,0.0,5.4,95,0.00,,SCT085,0.00,VWS V14.01,2013-05-17 12:26:00,
2013-05-17 06:31:00,44.8,43.4,29.98,SSW,212,0.0,5.4,95,0.00,,SCT085,0.00,VWS V14.01,2013-05-17 12:31:00,
2013-05-17 06:36:00,44.8,43.4,29.98,SSW,212,0.0,0.0,95,0.00,,SCT085,0.00,VWS V14.01,2013-05-17 12:36:00,
2013-05-17 06:41:00,45.1,43.8,29.98,SW,222,0.0,0.0,95,0.00,,SCT085,0.00,VWS V14.01,2013-05-17 12:41:00,
2013-05-17 06:46:00,45.3,44.0,29.98,SW,232,2.7,3.1,95,0.00,,SCT085,0.00,VWS V14.01,2013-05-17 12:46:00,
2013-05-17 06:51:00,45.3,44.0,29.98,WSW,239,2.7,3.1,95,0.00,,SCT085,0.00,VWS V14.01,2013-05-17 12:51:00,
2013-05-17 06:56:00,45.5,44.2,29.98,WSW,239,2.7,3.1,95,0.00,,SCT085,0.00,VWS V14.01,2013-05-17 12:56:00,
2013-05-17 07:01:00,45.5,44.2,29.98,WSW,238,0.0,3.1,95,0.00,,SCT085,0.00,VWS V14.01,2013-05-17 13:01:00,
2013-05-17 07:06:00,45.9,44.5,29.98,South,189,2.7,3.6,95,0.00,,OVC090,0.00,VWS V14.01,2013-05-17 13:06:00,
2013-05-17 07:11:00,46.2,44.9,29.98,SSW,200,0.0,3.6,95,0.00,,OVC090,0.00,VWS V14.01,2013-05-17 13:11:00,
2013-05-17 07:16:00,45.7,44.3,29.98,South,185,0.0,3.6,95,0.00,,OVC090,0.00,VWS V14.01,2013-05-17 13:16:00,
2013-05-17 07:21:00,45.9,44.5,29.98,South,185,0.0,3.6,95,0.00,,OVC090,0.00,VWS V14.01,2013-05-17 13:21:00,
2013-05-17 07:26:00,46.2,44.9,29.98,South,185,0.0,3.6,95,0.00,,OVC090,0.00,VWS V14.01,2013-05-17 13:26:00,
2013-05-17 07:31:00,45.9,44.8,29.98,South,185,0.0,3.6,96,0.00,,OVC090,0.00,VWS V14.01,2013-05-17 13:31:00,
2013-05-17 07:36:00,45.9,44.8,29.98,ESE,115,2.7,3.6,96,0.00,,OVC090,0.00,VWS V14.01,2013-05-17 13:36:00,
2013-05-17 07:41:00,45.7,44.3,29.98,NNE,30,0.0,3.6,95,0.00,,OVC090,0.00,VWS V14.01,2013-05-17 13:41:00,
2013-05-17 07:46:00,46.2,44.3,29.98,NE,39,0.0,3.6,93,0.00,,OVC090,0.00,VWS V14.01,2013-05-17 13:46:00,
2013-05-17 07:51:00,46.2,43.7,29.98,NE,39,0.0,3.6,91,0.00,,OVC090,0.00,VWS V14.01,2013-05-17 13:51:00,
2013-05-17 07:56:00,46.4,43.0,29.98,NNE,27,0.0,3.6,88,0.00,,OVC090,0.00,VWS V14.01,2013-05-17 13:56:00,
2013-05-17 08:01:00,46.2,42.0,29.98,NNE,28,0.0,3.6,85,0.00,,OVC090,0.00,VWS V14.01,2013-05-17 14:01:00,
2013-05-17 08:06:00,46.2,40.7,29.98,NNE,32,0.0,3.1,81,0.00,,OVC075,0.00,VWS V14.01,2013-05-17 14:06:00,
2013-05-17 08:11:00,45.9,39.1,29.98,North,9,0.0,3.1,77,0.00,,OVC075,0.00,VWS V14.01,2013-05-17 14:11:00,
2013-05-17 08:16:00,46.0,39.2,29.98,North,4,0.0,3.1,77,0.00,,OVC075,0.00,VWS V14.01,2013-05-17 14:16:00,
2013-05-17 08:21:00,45.7,39.5,29.98,North,6,3.1,3.1,79,0.00,,OVC075,0.00,VWS V14.01,2013-05-17 14:21:00,
2013-05-17 08:26:00,45.3,39.8,29.98,North,8,3.6,4.0,81,0.00,,OVC075,0.00,VWS V14.01,2013-05-17 14:26:00,
2013-05-17 08:31:00,45.1,40.3,29.98,North,357,0.0,4.0,83,0.00,,OVC075,0.00,VWS V14.01,2013-05-17 14:31:00,
2013-05-17 08:36:00,44.8,40.5,29.98,North,357,2.2,3.1,85,0.00,,OVC075,0.00,VWS V14.01,2013-05-17 14:36:00,
2013-05-17 08:41:00,45.0,41.0,29.98,North,0,2.7,3.1,86,0.00,,OVC075,0.00,VWS V14.01,2013-05-17 14:41:00,
2013-05-17 08:46:00,45.1,41.5,29.98,North,10,3.1,4.5,87,0.00,,OVC075,0.00,VWS V14.01,2013-05-17 14:46:00,
2013-05-17 08:51:00,45.3,41.4,29.98,North,2,4.0,5.4,86,0.00,,OVC075,0.00,VWS V14.01,2013-05-17 14:51:00,
2013-05-17 08:56:00,45.3,41.4,29.98,North,4,3.1,5.4,86,0.00,,OVC075,0.00,VWS V14.01,2013-05-17 14:56:00,
2013-05-17 09:01:00,45.9,41.9,29.98,NNW,334,5.4,5.4,86,0.00,,OVC075,0.00,VWS V14.01,2013-05-17 15:01:00,
2013-05-17 09:06:00,45.9,41.0,29.98,North,1,3.1,5.4,83,0.00,,OVC110,0.00,VWS V14.01,2013-05-17 15:06:00,
2013-05-17 09:11:00,45.3,40.2,29.98,NNE,14,2.7,5.4,82,0.00,,OVC110,0.00,VWS V14.01,2013-05-17 15:11:00,
2013-05-17 09:16:00,45.0,40.1,29.98,NNW,344,3.6,5.4,83,0.00,,OVC110,0.00,VWS V14.01,2013-05-17 15:16:00,
2013-05-17 09:21:00,44.6,39.8,29.98,NNW,343,3.1,5.8,83,0.00,,OVC110,0.00,VWS V14.01,2013-05-17 15:21:00,
2013-05-17 09:26:00,45.1,40.0,29.98,North,0,4.0,5.8,82,0.00,,OVC110,0.00,VWS V14.01,2013-05-17 15:26:00,
2013-05-17 09:31:00,45.7,40.8,29.98,North,8,3.6,5.8,83,0.00,,OVC110,0.00,VWS V14.01,2013-05-17 15:31:00,
2013-05-17 09:35:00,46.2,42.0,29.98,North,0,4.0,5.4,85,0.00,,OVC110,0.00,VWS V14.01,2013-05-17 15:35:00,
2013-05-17 09:40:00,46.0,41.5,29.98,NNE,12,4.0,5.4,84,0.00,,OVC110,0.00,VWS V14.01,2013-05-17 15:40:00,
2013-05-17 09:45:00,45.5,41.0,29.98,North,6,4.5,5.8,84,0.00,,OVC110,0.00,VWS V14.01,2013-05-17 15:45:00,
2013-05-17 09:51:00,45.3,41.1,29.98,North,353,5.4,6.3,85,0.00,,OVC110,0.00,VWS V14.01,2013-05-17 15:51:00,
2013-05-17 09:56:00,45.5,41.3,29.98,North,10,3.6,6.3,85,0.00,,OVC110,0.00,VWS V14.01,2013-05-17 15:56:00,
2013-05-17 10:01:00,45.3,40.8,29.98,North,8,3.6,6.3,84,0.00,,OVC110,0.00,VWS V14.01,2013-05-17 16:01:00,
2013-05-17 10:06:00,45.9,41.9,29.98,North,3,4.0,7.6,86,0.00,,BKN090,0.00,VWS V14.01,2013-05-17 16:06:00,
2013-05-17 10:11:00,47.7,43.7,29.98,NNE,16,5.4,7.6,86,0.04,,BKN090,0.04,VWS V14.01,2013-05-17 16:11:00,
2013-05-17 10:16:00,48.2,43.0,29.98,North,9,5.4,7.6,82,0.04,,BKN090,0.04,VWS V14.01,2013-05-17 16:16:00,
2013-05-17 10:21:00,48.4,41.8,29.98,North,3,4.9,8.7,78,0.04,,BKN090,0.04,VWS V14.01,2013-05-17 16:21:00,
2013-05-17 10:26:00,48.7,42.2,29.98,NNE,27,5.4,8.7,78,0.04,,BKN090,0.04,VWS V14.01,2013-05-17 16:26:00,
2013-05-17 10:31:00,48.7,42.2,29.98,North,11,5.8,8.7,78,0.04,,BKN090,0.04,VWS V14.01,2013-05-17 16:31:00,
2013-05-17 10:35:00,49.3,43.4,29.98,NNE,19,5.4,8.1,80,0.04,,BKN090,0.04,VWS V14.01,2013-05-17 16:35:00,
2013-05-17 10:40:00,50.2,43.6,29.98,North,6,10.1,10.1,78,0.04,,BKN090,0.04,VWS V14.01,2013-05-17 16:40:00,
2013-05-17 10:45:00,49.6,42.0,29.98,NNE,30,8.3,10.1,75,0.04,,BKN090,0.04,VWS V14.01,2013-05-17 16:45:00,
2013-05-17 10:50:00,50.0,41.7,29.98,North,5,6.3,10.1,73,0.04,,BKN090,0.04,VWS V14.01,2013-05-17 16:50:00,
2013-05-17 10:55:00,51.6,42.9,29.98,North,2,8.3,10.1,72,0.04,,BKN090,0.04,VWS V14.01,2013-05-17 16:55:00,
2013-05-17 11:00:00,52.2,41.2,29.98,NNW,345,3.6,10.1,66,0.04,,BKN090,0.04,VWS V14.01,2013-05-17 17:00:00,
2013-05-17 11:05:00,52.9,40.6,29.98,NNE,14,8.1,8.1,63,0.04,,BKN042,0.04,VWS V14.01,2013-05-17 17:05:00,
2013-05-17 11:10:00,54.9,40.8,29.98,North,3,4.0,8.1,59,0.04,,BKN042,0.04,VWS V14.01,2013-05-17 17:10:00,
2013-05-17 11:15:00,56.3,42.2,29.98,North,6,9.6,9.6,59,0.04,,BKN042,0.04,VWS V14.01,2013-05-17 17:15:00,
2013-05-17 11:20:00,54.5,40.9,29.98,NNE,12,5.8,11.0,60,0.04,,BKN042,0.04,VWS V14.01,2013-05-17 17:20:00,
2013-05-17 11:25:00,53.2,38.4,29.98,NW,323,5.4,11.0,57,0.04,,BKN042,0.04,VWS V14.01,2013-05-17 17:25:00,
2013-05-17 11:30:00,53.6,39.2,29.98,North,357,6.3,11.0,58,0.04,,BKN042,0.04,VWS V14.01,2013-05-17 17:30:00,
2013-05-17 11:35:00,55.0,41.8,29.98,North,2,6.3,10.1,61,0.00,,BKN042,0.04,VWS V14.01,2013-05-17 17:35:00,
2013-05-17 11:40:00,54.9,40.8,29.98,NNW,344,6.3,11.0,59,0.00,,BKN042,0.04,VWS V14.01,2013-05-17 17:40:00,
2013-05-17 11:45:00,55.2,39.3,29.98,NNE,19,4.0,11.0,55,0.00,,BKN042,0.04,VWS V14.01,2013-05-17 17:45:00,
2013-05-17 11:50:00,53.6,40.1,29.98,North,10,6.3,11.0,60,0.00,,BKN042,0.04,VWS V14.01,2013-05-17 17:50:00,
2013-05-17 11:55:00,52.9,39.8,29.98,North,0,4.9,11.0,61,0.00,,BKN042,0.04,VWS V14.01,2013-05-17 17:55:00,
2013-05-17 12:00:00,52.5,39.0,29.98,North,5,5.4,11.0,60,0.00,,BKN042,0.04,VWS V14.01,2013-05-17 18:00:00,
2013-05-17 12:05:00,52.3,40.1,29.98,NNW,339,4.9,7.6,63,0.00,,OVC044,0.04,VWS V14.01,2013-05-17 18:05:00,
2013-05-17 12:10:00,52.2,40.0,29.98,North,6,5.4,7.6,63,0.00,,OVC044,0.04,VWS V14.01,2013-05-17 18:10:00,
2013-05-17 12:15:00,51.6,39.5,29.98,NNW,337,5.8,7.6,63,0.00,,OVC044,0.04,VWS V14.01,2013-05-17 18:15:00,
2013-05-17 12:20:00,52.3,40.9,29.98,NNE,23,5.8,7.6,65,0.00,,OVC044,0.04,VWS V14.01,2013-05-17 18:20:00,
2013-05-17 12:25:00,50.5,40.0,29.98,North,5,5.4,8.3,67,0.00,,OVC044,0.04,VWS V14.01,2013-05-17 18:25:00,
2013-05-17 12:30:00,50.0,41.7,29.98,North,6,4.0,8.3,73,0.00,,OVC044,0.04,VWS V14.01,2013-05-17 18:30:00,
2013-05-17 12:35:00,51.3,41.5,29.98,North,0,3.6,7.6,69,0.00,,OVC044,0.04,VWS V14.01,2013-05-17 18:35:00,
2013-05-17 12:40:00,52.0,43.6,29.98,North,8,4.0,7.6,73,0.00,,OVC044,0.04,VWS V14.01,2013-05-17 18:40:00,
2013-05-17 12:45:00,51.4,41.6,29.98,North,0,3.1,7.6,69,0.00,,OVC044,0.04,VWS V14.01,2013-05-17 18:45:00,
2013-05-17 12:50:00,50.5,42.6,29.98,North,6,5.8,7.6,74,0.00,,OVC044,0.04,VWS V14.01,2013-05-17 18:50:00,
2013-05-17 12:55:00,53.4,44.3,29.98,NNW,341,5.8,7.6,71,0.00,,OVC044,0.04,VWS V14.01,2013-05-17 18:55:00,
2013-05-17 13:00:00,55.8,42.5,29.98,North,9,4.0,7.6,61,0.00,,OVC044,0.04,VWS V14.01,2013-05-17 19:00:00,
2013-05-17 13:05:00,54.9,42.1,29.98,North,0,3.1,7.6,62,0.00,,BKN044,0.04,VWS V14.01,2013-05-17 19:05:00,
2013-05-17 13:10:00,54.5,41.8,29.98,NE,42,4.0,7.6,62,0.00,,BKN044,0.04,VWS V14.01,2013-05-17 19:10:00,
2013-05-17 13:15:00,54.5,40.5,29.98,NNE,21,2.7,7.6,59,0.00,,BKN044,0.04,VWS V14.01,2013-05-17 19:15:00,
2013-05-17 13:20:00,54.0,41.7,29.98,North,349,4.9,8.1,63,0.00,,BKN044,0.04,VWS V14.01,2013-05-17 19:20:00,
2013-05-17 13:25:00,53.4,41.6,29.95,NNW,339,6.3,8.3,64,0.00,,BKN044,0.04,VWS V14.01,2013-05-17 19:25:00,
2013-05-17 13:30:00,53.4,42.0,29.95,North,353,5.8,9.2,65,0.00,,BKN044,0.04,VWS V14.01,2013-05-17 19:30:00,
2013-05-17 13:35:00,54.0,42.5,29.95,NW,319,7.2,8.3,65,0.00,,BKN044,0.04,VWS V14.01,2013-05-17 19:35:00,
2013-05-17 13:40:00,53.2,41.8,29.95,North,10,5.4,8.3,65,0.00,,BKN044,0.04,VWS V14.01,2013-05-17 19:40:00,
2013-05-17 13:45:00,52.5,41.9,29.95,NNW,341,2.7,8.7,67,0.00,,BKN044,0.04,VWS V14.01,2013-05-17 19:45:00,
2013-05-17 13:50:00,52.2,42.3,29.95,NNE,13,5.8,8.7,69,0.00,,BKN044,0.04,VWS V14.01,2013-05-17 19:50:00,
2013-05-17 13:55:00,51.3,41.5,29.95,North,11,5.4,8.7,69,0.00,,BKN044,0.04,VWS V14.01,2013-05-17 19:55:00,
2013-05-17 14:00:00,50.7,40.9,29.95,NW,310,5.8,8.7,69,0.00,,BKN044,0.04,VWS V14.01,2013-05-17 20:00:00,
2013-05-17 14:05:00,50.5,41.5,29.95,NNE,22,5.8,8.1,71,0.00,,-RA,0.04,VWS V14.01,2013-05-17 20:05:00,
2013-05-17 14:10:00,50.5,41.9,29.95,NNE,12,4.9,8.1,72,0.00,,-RA,0.04,VWS V14.01,2013-05-17 20:10:00,
2013-05-17 14:15:00,50.5,42.6,29.95,North,8,8.1,8.7,74,0.00,,-RA,0.04,VWS V14.01,2013-05-17 20:15:00,
2013-05-17 14:20:00,50.4,42.8,29.95,North,0,5.4,8.7,75,0.00,,-RA,0.04,VWS V14.01,2013-05-17 20:20:00,
2013-05-17 14:25:00,49.6,42.4,29.95,North,4,7.6,8.7,76,0.00,,-RA,0.04,VWS V14.01,2013-05-17 20:25:00,
2013-05-17 14:30:00,49.3,42.0,29.95,North,353,5.8,8.7,76,0.00,,-RA,0.04,VWS V14.01,2013-05-17 20:30:00,
2013-05-17 14:35:00,48.6,43.0,29.95,North,353,8.3,8.3,81,0.00,,-RA,0.04,VWS V14.01,2013-05-17 20:35:00,
2013-05-17 14:40:00,48.0,43.4,29.98,WNW,297,7.6,8.3,84,0.00,,-RA,0.04,VWS V14.01,2013-05-17 20:40:00,
2013-05-17 14:45:00,47.8,42.9,29.98,WNW,286,8.1,11.0,83,0.00,,-RA,0.04,VWS V14.01,2013-05-17 20:45:00,
2013-05-17 14:50:00,47.5,43.2,29.98,WNW,292,6.3,11.0,85,0.00,,-RA,0.04,VWS V14.01,2013-05-17 20:50:00,
2013-05-17 14:55:00,46.9,43.9,29.98,NNW,336,5.4,11.0,89,0.04,,-RA,0.08,VWS V14.01,2013-05-17 20:55:00,
2013-05-17 15:00:00,46.8,44.3,29.98,North,353,4.0,11.0,91,0.08,,-RA,0.12,VWS V14.01,2013-05-17 21:00:00,
2013-05-17 15:05:00,46.9,44.7,29.98,North,353,4.0,4.0,92,0.08,,-RA,0.12,VWS V14.01,2013-05-17 21:05:00,
2013-05-17 15:10:00,46.8,44.8,29.95,North,353,4.0,4.0,93,0.08,,-RA,0.12,VWS V14.01,2013-05-17 21:10:00,
2013-05-17 15:15:00,46.6,44.1,29.95,North,353,4.0,4.0,91,0.08,,-RA,0.12,VWS V14.01,2013-05-17 21:15:00,
2013-05-17 15:20:00,47.3,44.8,29.95,North,353,4.0,4.0,91,0.08,,-RA,0.12,VWS V14.01,2013-05-17 21:20:00,
2013-05-17 15:25:00,47.8,45.0,29.98,North,353,4.0,4.0,90,0.08,,-RA,0.12,VWS V14.01,2013-05-17 21:25:00,
2013-05-17 15:30:00,48.7,45.7,29.98,North,353,4.0,4.0,89,0.08,,-RA,0.12,VWS V14.01,2013-05-17 21:30:00,
2013-05-17 15:35:00,48.6,44.6,29.98,North,353,4.0,4.0,86,0.08,,-RA,0.12,VWS V14.01,2013-05-17 21:35:00,
2013-05-17 15:40:00,48.2,43.9,29.95,NNW,338,6.3,6.3,85,0.08,,-RA,0.12,VWS V14.01,2013-05-17 21:40:00,
2013-05-17 15:45:00,49.1,45.4,29.95,North,353,4.0,6.3,87,0.08,,-RA,0.12,VWS V14.01,2013-05-17 21:45:00,
2013-05-17 15:50:00,48.9,44.9,29.95,North,353,4.0,6.3,86,0.08,,-RA,0.12,VWS V14.01,2013-05-17 21:50:00,
2013-05-17 15:55:00,49.1,45.7,29.95,North,353,4.0,6.3,88,0.08,,-RA,0.12,VWS V14.01,2013-05-17 21:55:00,
2013-05-17 16:00:00,48.7,44.4,29.95,North,353,4.0,6.3,85,0.08,,-RA,0.12,VWS V14.01,2013-05-17 22:00:00,
2013-05-17 16:05:00,49.1,44.8,29.95,North,353,4.0,4.0,85,0.00,,OVC020,0.12,VWS V14.01,2013-05-17 22:05:00,
2013-05-17 16:10:00,50.5,45.6,29.98,North,353,4.0,4.0,83,0.00,,OVC020,0.12,VWS V14.01,2013-05-17 22:10:00,
2013-05-17 16:15:00,52.0,45.0,29.98,North,353,4.0,4.0,77,0.00,,OVC020,0.12,VWS V14.01,2013-05-17 22:15:00,
2013-05-17 16:20:00,52.5,45.5,29.98,North,353,4.0,4.0,77,0.00,,OVC020,0.12,VWS V14.01,2013-05-17 22:20:00,
2013-05-17 16:25:00,51.6,44.3,29.98,North,353,3.6,5.4,76,0.00,,OVC020,0.12,VWS V14.01,2013-05-17 22:25:00,
2013-05-17 16:30:00,51.6,46.0,29.98,NNW,329,3.6,5.8,81,0.00,,OVC020,0.12,VWS V14.01,2013-05-17 22:30:00,
2013-05-17 16:35:00,51.6,44.3,29.98,North,11,5.8,7.2,76,0.00,,OVC020,0.12,VWS V14.01,2013-05-17 22:35:00,
2013-05-17 16:40:00,51.6,43.3,29.98,NNE,24,4.9,7.2,73,0.00,,OVC020,0.12,VWS V14.01,2013-05-17 22:40:00,
2013-05-17 16:45:00,52.3,44.3,29.98,North,2,5.4,7.2,74,0.00,,OVC020,0.12,VWS V14.01,2013-05-17 22:45:00,
2013-05-17 16:50:00,52.7,44.7,29.98,NE,42,5.4,7.6,74,0.00,,OVC020,0.12,VWS V14.01,2013-05-17 22:50:00,
2013-05-17 16:55:00,52.2,44.5,29.98,North,0,5.4,7.6,75,0.00,,OVC020,0.12,VWS V14.01,2013-05-17 22:55:00,
2013-05-17 17:00:00,52.9,45.2,29.98,NNE,17,5.8,8.1,75,0.00,,OVC020,0.12,VWS V14.01,2013-05-17 23:00:00,
2013-05-17 17:05:00,53.4,44.6,29.98,North,6,3.6,6.3,72,0.00,,OVC050,0.12,VWS V14.01,2013-05-17 23:05:00,
2013-05-17 17:10:00,52.2,42.3,29.95,NNW,330,3.1,6.3,69,0.00,,OVC050,0.12,VWS V14.01,2013-05-17 23:10:00,
2013-05-17 17:15:00,52.5,44.1,29.95,North,2,3.1,6.3,73,0.00,,OVC050,0.12,VWS V14.01,2013-05-17 23:15:00,
2013-05-17 17:20:00,52.7,43.2,29.95,NNE,22,6.3,6.3,70,0.00,,OVC050,0.12,VWS V14.01,2013-05-17 23:20:00,
2013-05-17 17:25:00,52.5,43.4,29.95,NW,313,6.3,6.3,71,0.00,,OVC050,0.12,VWS V14.01,2013-05-17 23:25:00,
2013-05-17 17:30:00,52.3,44.0,29.95,NW,323,6.3,7.2,73,0.00,,OVC050,0.12,VWS V14.01,2013-05-17 23:30:00,
2013-05-17 17:35:00,52.3,44.7,29.95,NNW,333,4.5,6.3,75,0.00,,OVC050,0.12,VWS V14.01,2013-05-17 23:35:00,
2013-05-17 17:40:00,51.8,44.1,29.95,NNE,21,5.8,7.2,75,0.00,,OVC050,0.12,VWS V14.01,2013-05-17 23:40:00,
2013-05-17 17:45:00,51.6,43.6,29.95,North,357,4.0,8.3,74,0.00,,OVC050,0.12,VWS V14.01,2013-05-17 23:45:00,
2013-05-17 17:50:00,51.8,44.1,29.95,North,11,3.1,8.3,75,0.00,,OVC050,0.12,VWS V14.01,2013-05-17 23:50:00,
2013-05-17 17:55:00,51.4,43.1,29.95,North,4,4.0,8.3,73,0.00,,OVC050,0.12,VWS V14.01,2013-05-17 23:55:00,
2013-05-17 18:00:00,51.6,43.3,29.95,North,2,5.4,8.3,73,0.00,,OVC050,0.12,VWS V14.01,2013-05-18 00:00:00,
2013-05-17 18:05:00,51.4,42.7,29.95,North,9,5.8,5.8,72,0.00,,BKN120,0.12,VWS V14.01,2013-05-18 00:05:00,
2013-05-17 18:10:00,51.1,43.1,29.95,NNE,21,5.8,7.6,74,0.00,,BKN120,0.12,VWS V14.01,2013-05-18 00:10:00,
2013-05-17 18:15:00,50.5,42.6,29.95,NNE,13,4.9,7.6,74,0.00,,BKN120,0.12,VWS V14.01,2013-05-18 00:15:00,
2013-05-17 18:20:00,50.4,42.8,29.95,NNE,26,5.4,7.6,75,0.00,,BKN120,0.12,VWS V14.01,2013-05-18 00:20:00,
2013-05-17 18:25:00,50.4,43.4,29.98,North,357,2.7,7.6,77,0.00,,BKN120,0.12,VWS V14.01,2013-05-18 00:25:00,
2013-05-17 18:30:00,50.4,43.8,29.98,North,0,3.6,7.6,78,0.00,,BKN120,0.12,VWS V14.01,2013-05-18 00:30:00,
2013-05-17 18:35:00,50.7,44.8,29.98,NE,39,4.0,4.9,80,0.00,,BKN120,0.12,VWS V14.01,2013-05-18 00:35:00,
2013-05-17 18:40:00,51.1,44.8,29.98,North,9,4.0,4.9,79,0.00,,BKN120,0.12,VWS V14.01,2013-05-18 00:40:00,
2013-05-17 18:45:00,51.3,44.6,29.98,NNE,33,4.9,4.9,78,0.00,,BKN120,0.12,VWS V14.01,2013-05-18 00:45:00,
2013-05-17 18:50:00,51.4,44.1,29.98,North,10,2.2,5.4,76,0.00,,BKN120,0.12,VWS V14.01,2013-05-18 00:50:00,
2013-05-17 18:55:00,50.7,43.8,29.98,NNE,28,0.0,5.4,77,0.00,,BKN120,0.12,VWS V14.01,2013-05-18 00:55:00,
2013-05-17 19:00:00,50.5,44.3,29.98,North,357,3.1,5.4,79,0.00,,BKN120,0.12,VWS V14.01,2013-05-18 01:00:00,
2013-05-17 19:05:00,49.8,44.5,29.98,NNW,339,3.1,3.6,82,0.00,,CLR,0.12,VWS V14.01,2013-05-18 01:05:00,
2013-05-17 19:10:00,49.6,45.0,29.98,NNW,333,0.0,3.6,84,0.00,,CLR,0.12,VWS V14.01,2013-05-18 01:10:00,
2013-05-17 19:15:00,49.5,45.2,29.98,NNE,27,0.0,3.6,85,0.00,,CLR,0.12,VWS V14.01,2013-05-18 01:15:00,
2013-05-17 19:20:00,49.3,45.3,29.98,WNW,291,3.1,4.0,86,0.00,,CLR,0.12,VWS V14.01,2013-05-18 01:20:00,
2013-05-17 19:25:00,49.5,45.2,29.98,WNW,290,2.2,4.0,85,0.00,,CLR,0.12,VWS V14.01,2013-05-18 01:25:00,
2013-05-17 19:30:00,49.5,45.2,29.98,West,281,0.0,4.0,85,0.00,,CLR,0.12,VWS V14.01,2013-05-18 01:30:00,
2013-05-17 19:35:00,49.3,45.3,29.98,West,274,3.1,4.0,86,0.00,,CLR,0.12,VWS V14.01,2013-05-18 01:35:00,
2013-05-17 19:40:00,49.5,45.5,29.98,WNW,297,3.1,4.9,86,0.00,,CLR,0.12,VWS V14.01,2013-05-18 01:40:00,
2013-05-17 19:45:00,49.5,45.5,29.98,NNW,328,2.7,4.9,86,0.00,,CLR,0.12,VWS V14.01,2013-05-18 01:45:00,
2013-05-17 19:50:00,49.5,45.5,29.98,NNW,333,2.7,4.9,86,0.00,,CLR,0.12,VWS V14.01,2013-05-18 01:50:00,
2013-05-17 19:55:00,49.3,45.3,29.98,NW,313,3.6,4.9,86,0.00,,CLR,0.12,VWS V14.01,2013-05-18 01:55:00,
2013-05-17 20:00:00,49.1,45.1,29.98,NW,325,2.2,4.9,86,0.00,,CLR,0.12,VWS V14.01,2013-05-18 02:00:00,
2013-05-17 20:05:00,49.1,45.4,29.98,NW,318,0.0,3.1,87,0.00,,CLR,0.12,VWS V14.01,2013-05-18 02:05:00,
2013-05-17 20:10:00,49.1,45.7,29.98,NW,318,0.0,3.1,88,0.00,,CLR,0.12,VWS V14.01,2013-05-18 02:10:00,
2013-05-17 20:15:00,49.1,46.0,29.98,NW,320,5.4,5.4,89,0.00,,CLR,0.12,VWS V14.01,2013-05-18 02:15:00,
2013-05-17 20:20:00,48.9,45.8,29.98,North,353,3.1,5.4,89,0.00,,CLR,0.12,VWS V14.01,2013-05-18 02:20:00,
2013-05-17 20:25:00,48.6,45.8,29.98,North,357,2.2,5.4,90,0.00,,CLR,0.12,VWS V14.01,2013-05-18 02:25:00,
2013-05-17 20:30:00,48.4,45.9,29.98,North,353,2.2,5.4,91,0.00,,CLR,0.12,VWS V14.01,2013-05-18 02:30:00,
2013-05-17 20:35:00,48.0,45.8,29.98,North,353,2.2,2.7,92,0.00,,CLR,0.12,VWS V14.01,2013-05-18 02:35:00,
2013-05-17 20:40:00,48.0,46.1,29.98,North,353,0.0,2.7,93,0.00,,CLR,0.12,VWS V14.01,2013-05-18 02:40:00,
2013-05-17 20:45:00,47.8,45.9,29.98,NNW,344,0.0,2.7,93,0.00,,CLR,0.12,VWS V14.01,2013-05-18 02:45:00,
2013-05-17 20:50:00,47.7,45.7,29.98,North,3,2.2,2.7,93,0.00,,CLR,0.12,VWS V14.01,2013-05-18 02:50:00,
2013-05-17 20:55:00,47.7,45.7,29.98,North,0,2.7,2.7,93,0.00,,CLR,0.12,VWS V14.01,2013-05-18 02:55:00,
2013-05-17 21:00:00,47.7,46.0,29.98,North,0,0.0,2.7,94,0.00,,CLR,0.12,VWS V14.01,2013-05-18 03:00:00,
2013-05-17 21:05:00,47.3,45.7,29.98,North,0,0.0,0.0,94,0.00,,SCT120,0.12,VWS V14.01,2013-05-18 03:05:00,
2013-05-17 21:10:00,47.1,45.5,29.98,NNE,15,0.0,2.2,94,0.00,,SCT120,0.12,VWS V14.01,2013-05-18 03:10:00,
2013-05-17 21:15:00,47.1,45.5,29.98,North,3,0.0,2.2,94,0.00,,SCT120,0.12,VWS V14.01,2013-05-18 03:15:00,
2013-05-17 21:20:00,47.7,46.0,29.98,North,3,0.0,2.2,94,0.00,,SCT120,0.12,VWS V14.01,2013-05-18 03:20:00,
2013-05-17 21:25:00,48.6,46.6,29.98,ENE,75,2.7,2.7,93,0.00,,SCT120,0.12,VWS V14.01,2013-05-18 03:25:00,
2013-05-17 21:30:00,48.4,46.5,29.98,East,80,0.0,2.7,93,0.00,,SCT120,0.12,VWS V14.01,2013-05-18 03:30:00,
2013-05-17 21:35:00,48.7,46.8,29.98,East,80,0.0,0.0,93,0.00,,SCT120,0.12,VWS V14.01,2013-05-18 03:35:00,
2013-05-17 21:40:00,48.7,47.1,29.98,East,80,0.0,0.0,94,0.00,,SCT120,0.12,VWS V14.01,2013-05-18 03:40:00,
2013-05-17 21:45:00,48.7,47.1,29.98,East,80,0.0,0.0,94,0.00,,SCT120,0.12,VWS V14.01,2013-05-18 03:45:00,
2013-05-17 21:50:00,48.7,47.1,29.98,SSW,204,0.0,0.0,94,0.00,,SCT120,0.12,VWS V14.01,2013-05-18 03:50:00,
2013-05-17 21:55:00,48.7,47.1,30.01,SW,221,0.0,0.0,94,0.00,,SCT120,0.12,VWS V14.01,2013-05-18 03:55:00,
2013-05-17 22:00:00,48.7,47.1,30.01,SW,221,0.0,0.0,94,0.00,,SCT120,0.12,VWS V14.01,2013-05-18 04:00:00,
2013-05-17 22:01:00,48.7,47.1,30.01,SW,221,0.0,0.0,94,0.00,,SCT120,0.12,VWS V14.01,2013-05-18 04:01:00,
2013-05-17 22:06:00,48.7,47.1,30.01,West,273,3.1,3.6,94,0.00,,CLR,0.12,VWS V14.01,2013-05-18 04:06:00,
2013-05-17 22:11:00,48.7,47.1,30.01,West,278,0.0,3.6,94,0.00,,CLR,0.12,VWS V14.01,2013-05-18 04:11:00,
2013-05-17 22:16:00,48.6,46.9,30.01,West,278,0.0,3.6,94,0.00,,CLR,0.12,VWS V14.01,2013-05-18 04:16:00,
2013-05-17 22:21:00,48.4,46.7,30.01,West,278,0.0,3.6,94,0.00,,CLR,0.12,VWS V14.01,2013-05-18 04:21:00,
2013-05-17 22:26:00,47.8,46.2,30.01,WSW,244,3.6,3.6,94,0.00,,CLR,0.12,VWS V14.01,2013-05-18 04:26:00,
2013-05-17 22:31:00,47.1,45.5,30.01,WSW,244,3.6,3.6,94,0.00,,CLR,0.12,VWS V14.01,2013-05-18 04:31:00,
2013-05-17 22:36:00,46.8,45.1,30.01,SW,220,3.6,3.6,94,0.00,,CLR,0.12,VWS V14.01,2013-05-18 04:36:00,
2013-05-17 22:41:00,46.4,44.8,30.01,WSW,238,0.0,4.0,94,0.00,,CLR,0.12,VWS V14.01,2013-05-18 04:41:00,
2013-05-17 22:46:00,46.6,45.0,30.01,West,277,0.0,4.0,94,0.00,,CLR,0.12,VWS V14.01,2013-05-18 04:46:00,
2013-05-17 22:51:00,45.9,44.5,30.01,West,277,0.0,4.0,95,0.00,,CLR,0.12,VWS V14.01,2013-05-18 04:51:00,
2013-05-17 22:56:00,45.3,44.0,30.01,West,277,0.0,4.0,95,0.00,,CLR,0.12,VWS V14.01,2013-05-18 04:56:00,
2013-05-17 23:01:00,44.8,43.4,30.01,West,277,0.0,4.0,95,0.00,,CLR,0.12,VWS V14.01,2013-05-18 05:01:00,
2013-05-17 23:06:00,45.3,44.0,30.01,West,277,0.0,0.0,95,0.00,,CLR,0.12,VWS V14.01,2013-05-18 05:06:00,
2013-05-17 23:11:00,45.7,44.3,30.01,NE,41,0.0,0.0,95,0.00,,CLR,0.12,VWS V14.01,2013-05-18 05:11:00,
2013-05-17 23:16:00,45.1,43.8,30.01,NE,41,0.0,0.0,95,0.00,,CLR,0.12,VWS V14.01,2013-05-18 05:16:00,
2013-05-17 23:21:00,44.6,43.3,30.01,NE,41,0.0,0.0,95,0.00,,CLR,0.12,VWS V14.01,2013-05-18 05:21:00,
2013-05-17 23:26:00,44.8,43.4,30.01,NE,41,0.0,0.0,95,0.00,,CLR,0.12,VWS V14.01,2013-05-18 05:26:00,
2013-05-17 23:31:00,44.1,42.7,30.01,WSW,251,3.6,5.4,95,0.00,,CLR,0.12,VWS V14.01,2013-05-18 05:31:00,
2013-05-17 23:36:00,44.1,42.7,30.01,West,259,3.6,4.9,95,0.00,,CLR,0.12,VWS V14.01,2013-05-18 05:36:00,
2013-05-17 23:41:00,43.5,42.2,29.98,West,267,3.1,5.8,95,0.00,,CLR,0.12,VWS V14.01,2013-05-18 05:41:00,
2013-05-17 23:46:00,42.8,41.5,29.98,WSW,242,4.0,5.8,95,0.00,,CLR,0.12,VWS V14.01,2013-05-18 05:46:00,
2013-05-17 23:51:00,43.0,41.7,29.98,West,276,8.1,8.1,95,0.00,,CLR,0.12,VWS V14.01,2013-05-18 05:51:00,
2013-05-17 23:56:00,44.6,43.3,29.98,WSW,251,5.4,8.1,95,0.00,,CLR,0.12,VWS V14.01,2013-05-18 05:56:00,